Trabzon, Turkey

11:49 AM +03 on January 21, 2018 (GMT +0300)
Trabzon

Weather History for LTCG - February, 2013

Change the Weather History Date:

Tuesday, February 19, 2013

  Actual Average Record
Temperature  
Mean Temperature 42 °F -  
Max Temperature 46 °F 50 °F 68 °F (1999)
Min Temperature 39 °F 40 °F 32 °F (2008)
Degree Days  
Heating Degree Days 22    
Moisture  
Dew Point 39 °F    
Average Humidity 85    
Maximum Humidity 93    
Minimum Humidity 74    
Precipitation  
Precipitation 0.01 in - - ()
Sea Level Pressure  
Sea Level Pressure 30.12 in    
Wind  
Wind Speed 4 mph ()    
Max Wind Speed 7 mph    
Max Gust Speed 15 mph    
Visibility 6.3 miles    
Events Rain    
Averages and records for this station are not official NWS values.
T = Trace of Precipitation, MM = Missing Value Source: Averaged Metar Reports

Daily Weather History Graph

Daily Weather History Graph

Search for Another Location

Airport or City:

Trip Planner

Search our weather history database for the weather conditions in past years. The results will help you decide how hot, cold, wet, or windy it might be!

Date:

Astronomy

Feb. 19, 2013 Rise Set
Actual Time 6:09 AM EET 5:00 PM EET
Civil Twilight 5:41 AM EET 5:28 PM EET
Nautical Twilight 5:09 AM EET 6:00 PM EET
Astronomical Twilight 4:38 AM EET 6:31 PM EET
Moon 11:13 AM EET (2/19) 1:24 AM EET (2/19)
Length of Visible Light 11h 46m
Length of Day
10h 50m
Waxing Gibbous, 64% of the Moon is Illuminated
Feb 19
Waxing Gibbous
Feb 25
Full
Mar 4
Last Quarter
Mar 11
New
Mar 19
First Quarter

Hourly Weather History & Observations

Time (EET) Temp. Windchill Dew Point Humidity Pressure Visibility Wind Dir Wind Speed Gust Speed Precip Events Conditions
12:20 AM 42.8 °F 39.3 °F 37.4 °F 81% 30.09 in 6.2 mi SW 5.8 mph - N/A Rain Light Rain Showers
12:50 AM 42.8 °F 39.3 °F 39.2 °F 87% 30.12 in 6.2 mi SW 5.8 mph - N/A Rain Light Rain Showers
1:20 AM 42.8 °F 39.3 °F 39.2 °F 87% 30.12 in 6.2 mi SW 5.8 mph - N/A Rain Light Rain Showers
1:50 AM 42.8 °F 40.1 °F 39.2 °F 87% 30.12 in 6.2 mi WSW 4.6 mph - N/A Rain Light Rain Showers
2:00 AM 42 °F - 38 °F 83% 30.13 in 9 mi WSW 4.6 mph - - Rain Light Rain Showers
2:20 AM 42.8 °F 40.1 °F 39.2 °F 87% 30.12 in 6.2 mi WSW 4.6 mph - N/A Rain Light Rain Showers
2:50 AM 42.8 °F 40.1 °F 39.2 °F 87% 30.12 in 6.2 mi WSW 4.6 mph - N/A Rain Light Rain Showers
3:20 AM 42.8 °F 40.1 °F 39.2 °F 87% 30.12 in 6.2 mi WSW 4.6 mph - N/A Rain Light Rain Showers
3:50 AM 41.0 °F - 39.2 °F 93% 30.12 in 6.2 mi SSW 2.3 mph - N/A Rain Light Rain Showers
4:20 AM 41.0 °F 39.0 °F 39.2 °F 93% 30.12 in 6.2 mi South 3.5 mph - N/A Rain Light Rain Showers
4:50 AM 41.0 °F - 39.2 °F 93% 30.12 in 6.2 mi Calm Calm - N/A Rain Light Rain Showers
5:20 AM 41.0 °F - 39.2 °F 93% 30.12 in 6.2 mi Calm Calm - N/A Rain Light Rain Showers
5:50 AM 41.0 °F - 39.2 °F 93% 30.15 in 6.2 mi Calm Calm - N/A   Mostly Cloudy
6:20 AM 42.8 °F 40.1 °F 39.2 °F 87% 30.15 in 6.2 mi West 4.6 mph - N/A Rain Light Rain Showers
6:50 AM 42.8 °F 41.1 °F 39.2 °F 87% 30.15 in 6.2 mi WSW 3.5 mph - N/A Rain Light Rain Showers
7:20 AM 42.8 °F - 39.2 °F 87% 30.15 in 5.6 mi Variable 2.3 mph - N/A Rain Light Rain Showers
7:50 AM 42.8 °F - 39.2 °F 87% 30.15 in 5.6 mi Calm Calm - N/A Rain Light Rain Showers
8:20 AM 42.8 °F - 39.2 °F 87% 30.15 in 5.6 mi Variable 2.3 mph - N/A Rain Light Rain Showers
8:50 AM 42.8 °F - 39.2 °F 87% 30.15 in 6.2 mi Variable 2.3 mph - N/A Rain Light Rain Showers
9:20 AM 42.8 °F 41.1 °F 39.2 °F 87% 30.15 in 6.2 mi NNE 3.5 mph - N/A Rain Light Rain Showers
9:50 AM 42.8 °F - 41.0 °F 93% 30.15 in 5.6 mi Variable 2.3 mph - N/A Rain Light Rain Showers
10:20 AM 42.8 °F 40.1 °F 41.0 °F 93% 30.15 in 5.0 mi ESE 4.6 mph - N/A Rain Light Rain Showers
10:50 AM 42.8 °F 40.1 °F 41.0 °F 93% 30.15 in 5.6 mi East 4.6 mph - N/A   Mostly Cloudy
11:20 AM 42.8 °F 40.1 °F 41.0 °F 93% 30.15 in 6.2 mi East 4.6 mph - N/A   Mostly Cloudy
11:50 AM 44.6 °F 42.2 °F 41.0 °F 87% 30.15 in 6.2 mi NE 4.6 mph - N/A   Mostly Cloudy
12:20 PM 44.6 °F 41.4 °F 39.2 °F 81% 30.12 in 6.2 mi ENE 5.8 mph - N/A   Scattered Clouds
12:50 PM 46.4 °F 44.3 °F 41.0 °F 81% 30.12 in 6.2 mi Variable 4.6 mph - N/A   Mostly Cloudy
1:20 PM 44.6 °F 43.1 °F 41.0 °F 87% 30.12 in 6.2 mi Variable 3.5 mph - N/A   Mostly Cloudy
1:50 PM 44.6 °F 43.1 °F 39.2 °F 81% 30.12 in 6.2 mi Variable 3.5 mph - N/A   Mostly Cloudy
2:00 PM 45 °F - 39 °F 74% 30.14 in 6 mi NNE 3.5 mph - -   Partly Cloudy
2:20 PM 44.6 °F 43.1 °F 39.2 °F 81% 30.12 in 6.2 mi Variable 3.5 mph - N/A   Mostly Cloudy
2:50 PM 44.6 °F 41.4 °F 39.2 °F 81% 30.12 in 6.2 mi East 5.8 mph - N/A   Mostly Cloudy
3:20 PM 44.6 °F 40.7 °F 39.2 °F 81% 30.12 in 6.2 mi East 6.9 mph - N/A   Mostly Cloudy
3:50 PM 44.6 °F 40.7 °F 39.2 °F 81% 30.12 in 6.2 mi East 6.9 mph - N/A   Mostly Cloudy
4:20 PM 44.6 °F 40.7 °F 39.2 °F 81% 30.12 in 6.2 mi East 6.9 mph - N/A   Mostly Cloudy
4:50 PM 44.6 °F 40.7 °F 39.2 °F 81% 30.12 in 6.2 mi ESE 6.9 mph - N/A   Mostly Cloudy
5:20 PM 44.6 °F 41.4 °F 39.2 °F 81% 30.12 in 6.2 mi SE 5.8 mph - N/A   Mostly Cloudy
5:50 PM 44.6 °F 41.4 °F 39.2 °F 81% 30.12 in 6.2 mi SSE 5.8 mph - N/A   Mostly Cloudy
6:20 PM 42.8 °F 38.6 °F 37.4 °F 81% 30.12 in 6.2 mi SE 6.9 mph - N/A   Mostly Cloudy
6:50 PM 42.8 °F 38.6 °F 37.4 °F 81% 30.12 in 6.2 mi SE 6.9 mph - N/A   Scattered Clouds
7:20 PM 42.8 °F 39.3 °F 37.4 °F 81% 30.12 in 6.2 mi SSE 5.8 mph - N/A   Scattered Clouds
7:50 PM 41.0 °F 38.0 °F 35.6 °F 81% 30.12 in 6.2 mi South 4.6 mph - N/A   Scattered Clouds
8:00 PM 41 °F - 36 °F 77% 30.12 in 12 mi South 4.6 mph - -   Partly Cloudy
8:20 PM 41.0 °F - 37.4 °F 87% 30.12 in 6.2 mi Variable 1.2 mph - N/A   Scattered Clouds
8:50 PM 41.0 °F - 35.6 °F 81% 30.09 in 6.2 mi Variable 2.3 mph - N/A   Scattered Clouds
9:20 PM 41.0 °F 38.0 °F 35.6 °F 81% 30.09 in 6.2 mi South 4.6 mph - N/A   Scattered Clouds
9:50 PM 39.2 °F 37.0 °F 35.6 °F 87% 30.09 in 6.2 mi South 3.5 mph 15.0 mph N/A   Scattered Clouds
10:20 PM 39.2 °F 37.0 °F 35.6 °F 87% 30.09 in 6.2 mi South 3.5 mph - N/A   Scattered Clouds
10:50 PM 39.2 °F - 35.6 °F 87% 30.06 in 6.2 mi Calm Calm - N/A   Scattered Clouds
11:20 PM 39.2 °F - 35.6 °F 87% 30.06 in 6.2 mi Variable 2.3 mph - N/A   Scattered Clouds
11:50 PM 39.2 °F - 33.8 °F 81% 30.06 in 6.2 mi South 2.3 mph - N/A   Scattered Clouds